Regional Weather Roundup
Issued by NWS

Home | Current Version | Previous Version | Graphics & Text | Print | Product List | Glossary On
Versions: 1 2 3 4 5 6 7 8 9 10 11 12 13 14 15 16 17 18 19 20 21 22 23 24 25 26 27
000
ASUS45 KBOU 230607
RWRCO

WEATHER ROUNDUP FOR COLORADO
NATIONAL WEATHER SERVICE DENVER/BOULDER CO
1200 AM MDT SAT JUL 23 2016

NOTE: "FAIR" INDICATES FEW OR NO CLOUDS BELOW 12000 FEET WITH NO
SIGNIFICANT WEATHER AND/OR OBSTRUCTIONS TO VISIBILITY.

COZ001>005-013-030-031-230700-
...NORTHWEST COLORADO...

CITY           SKY/WX    TMP DP  RH WIND       PRES   REMARKS
CRAIG          FAIR      60  50  69 SE5       30.26F
HAYDEN         FAIR      63  45  51 E9        30.29F
MEEKER         FAIR      62  53  72 E5        30.30S
MOUNT WERNER   NOT AVBL
STEAMBOAT SPGS FAIR      62  47  56 CALM      30.31F
WALDEN         FAIR      54  43  66 E6        30.40S
$$

COZ006>008-011-230700-
...WEST CENTRAL VALLEYS...

CITY           SKY/WX    TMP DP  RH WIND       PRES   REMARKS
GRAND JUNCTION MOCLDY    75  53  46 NE10      30.21R
MONTROSE       FAIR      70  50  49 S12       30.29F
EAGLE          FAIR      61  54  77 NE5       30.35R
RIFLE          FAIR      68  56  65 NW3       30.26R
DELTA          LGT RAIN  69  59  69 S6        30.25R
NUCLA          NOT AVBL
$$

COZ017>023-064>068-230700-
...SOUTHWEST COLORADO...

CITY           SKY/WX    TMP DP  RH WIND       PRES   REMARKS
DURANGO        MOCLDY    74  46  36 W6        30.32R
CORTEZ         FAIR      69  47  45 N8        30.24F
PAGOSA SPRINGS FAIR      65  44  46 W3        30.38F
TELLURIDE      FAIR      57  49  75 CALM      30.55F
WOLF CREEK PAS FAIR      52  41  66 NW3       30.76S
$$

COZ009-010-012-014-032>034-037-058>063-230700-
...CENTRAL COLORADO...

CITY           SKY/WX    TMP DP  RH WIND       PRES   REMARKS
ASPEN          FAIR      57  47  69 SW8       30.42F
BUENA VISTA    FAIR      60  46  60 NW10      30.40F
COPPER MTN     FAIR      54  41  62 W3        30.74R
BERTHOUD PASS  FAIR      43  30  61 N14G20    30.74F
COTTONWOOD PAS FAIR      61  41  48 W10G16    30.55F
GUNNISON       FAIR      55  48  76 N3        30.47S
KREMMLING      FAIR      57  46  67 CALM      30.38F
LEADVILLE      FAIR      48  42  80 NE6       30.56F
MONARCH PASS   MOCLDY    48  41  76 W20       30.83F
SALIDA         FAIR      68  47  46 CALM      30.44F
SUNLIGHT       FAIR      55  41  58 SW3       30.66F
WILKERSON PASS FAIR      52  37  58 NW8       30.67S
$$

COZ069>075-230700-
...SAN LUIS VALLEY/SANGRE DE CRISTO MOUNTAINS...

CITY           SKY/WX    TMP DP  RH WIND       PRES   REMARKS
ALAMOSA        FAIR      65  46  50 N7        30.36F
LA VETA PASS   FAIR      61  39  44 S8        30.56F
SAGUACHE       FAIR      63  48  59 NW14      30.41S
$$

COZ035-036-038>040-230700-
...NORTHERN COLORADO FRONT RANGE...

CITY           SKY/WX    TMP DP  RH WIND       PRES   REMARKS
DENVER INTL AP MOCLDY    72  50  45 SW9       30.12S
DMNS CITY PARK   N/A     72  53  50 S3        30.12S
AURORA         MOCLDY    71  51  49 S8        30.15S
FRONT RANGE AP NOT AVBL
ERIE MUNI ARPT FAIR      70  56  60 CALM      30.09F
BOULDER MUN AP FAIR      73  50  43 CALM      30.10F
CENTENNIAL     FAIR      74  45  35 E6        30.16F
BROOMFIELD     FAIR      79  41  25 NW16      30.13F
LONGMONT       FAIR      75  52  44 W5        30.10F
$$

COZ041-046-047-076>085-087-088-230700-
...PIKES PEAK/PALMER DIVIDE AND SOUTHERN FOOTHILLS...

CITY           SKY/WX    TMP DP  RH WIND       PRES   REMARKS
COLO. SPRINGS  FAIR      74  48  39 NW9       30.20F
A. F. ACADEMY  FAIR      65  49  55 NE10      30.22F
SCHRIEVER AFB  NOT AVBL
ELLICOTT       FAIR     N/A N/A N/A N5        30.18F
FALCON         NOT AVBL
FORT CARSON    FAIR      68  51  53 N5        30.15F
LIMON          FAIR      74  49  41 W9        30.11S
MONUMENT HILL  FAIR      64  46  52 SW10      30.27F
TRINIDAD       NOT AVBL
$$

COZ042>045-048>051-090-091-230700-
...NORTHEAST COLORADO...

CITY           SKY/WX    TMP DP  RH WIND       PRES   REMARKS
GREELEY ARPT   FAIR      73  61  64 E12       30.10R
AKRON          FAIR      68  63  84 E9        30.07F
BURLINGTON     FAIR      81  56  42 S10       30.02F
WRAY           NOT AVBL
STERLING       FAIR      72  64  78 CALM      30.02F
HOLYOKE        FAIR      73  68  83 W15       30.01F
FORT MORGAN    FAIR      70  62  75 NE13      30.07R
$$

COZ086-089-092>099-230700-
...SOUTHEAST COLORADO...

CITY           SKY/WX    TMP DP  RH WIND       PRES   REMARKS
PUEBLO         FAIR      74  57  55 N9        30.08S
LA JUNTA       FAIR      82  51  34 SW6       30.02S
LAMAR          FAIR      80  52  37 S9        29.98R
SPRINGFIELD      N/A     80  51  36 SW14      30.07R
$$




USA.gov is the U.S. government's official web portal to all federal, state and local government web resources and services.